FW4559 Weather Reports


time (UTC)temp
C
wind
direction
speed
KPH
gust
KPH
rain 1hr
cm
rain 24hr
cm
rain mn
cm
humidity
%
barometer
mb
20260510211505 23 352 1.6 14.5 0.00 0.00 0.00 33 1014.9
20260510211005 23 150 3.2 14.5 0.00 0.00 0.00 34 1014.9
20260510210509 23 291 9.7 17.7 0.00 0.00 0.00 35 1015.0
20260510210005 23 200 6.4 17.7 0.00 0.00 0.00 35 1015.0
20260510205505 23 204 0.0 12.9 0.00 0.00 0.00 36 1015.1
20260510205002 23 255 4.8 12.9 0.00 0.00 0.00 35 1015.1
20260510204502 23 203 3.2 19.3 0.00 0.00 0.00 35 1015.1
20260510204001 23 338 8.0 17.7 0.00 0.00 0.00 33 1015.1
20260510203501 23 99 3.2 16.1 0.00 0.00 0.00 33 1015.1
20260510203101 23 208 6.4 16.1 0.00 0.00 0.00 33 1015.0
20260510202600 23 288 1.6 12.9 0.00 0.00 0.00 33 1015.1
20260510202059 23 322 3.2 16.1 0.00 0.00 0.00 32 1015.2
20260510201559 23 256 3.2 14.5 0.00 0.00 0.00 33 1015.1
20260510201059 23 354 6.4 14.5 0.00 0.00 0.00 32 1015.2
20260510200601 23 70 3.2 8.0 0.00 0.00 0.00 33 1015.2
20260510200201 23 108 0.0 6.4 0.00 0.00 0.00 34 1015.3
20260510195557 23 214 1.6 8.0 0.00 0.00 0.00 37 1015.2
20260510195057 23 323 1.6 11.3 0.00 0.00 0.00 35 1015.4
20260510194604 22 342 1.6 11.3 0.00 0.00 0.00 36 1015.4
20260510194056 22 3 3.2 16.1 0.00 0.00 0.00 34 1015.4
20260510193556 23 322 4.8 16.1 0.00 0.00 0.00 35 1015.3
20260510193105 22 205 8.0 14.5 0.00 0.00 0.00 33 1015.4
20260510192555 23 265 4.8 11.3 0.00 0.00 0.00 33 1015.4
20260510192155 23 247 1.6 11.3 0.00 0.00 0.00 33 1015.5
20260510191603 22 333 4.8 16.1 0.00 0.00 0.00 33 1015.7
20260510191055 22 300 3.2 12.9 0.00 0.00 0.00 33 1015.7
20260510190554 22 326 3.2 19.3 0.00 0.00 0.00 34 1015.8
20260510190059 22 309 4.8 20.9 0.00 0.00 0.00 35 1015.9
20260510185557 23 345 4.8 12.9 0.00 0.00 0.00 33 1015.9
20260510185053 23 338 6.4 16.1 0.00 0.00 0.00 33 1015.8
20260510184600 23 245 3.2 16.1 0.00 0.00 0.00 34 1015.8
20260510184054 23 295 1.6 12.9 0.00 0.00 0.00 34 1015.9
20260510183652 23 277 3.2 12.9 0.00 0.00 0.00 35 1015.8
20260510183052 23 330 4.8 11.3 0.00 0.00 0.00 33 1015.8
20260510182554 23 135 3.2 11.3 0.00 0.00 0.00 33 1015.6
20260510182050 23 269 4.8 11.3 0.00 0.00 0.00 31 1015.7
20260510181559 23 272 4.8 11.3 0.00 0.00 0.00 35 1015.9
20260510181050 22 185 1.6 11.3 0.00 0.00 0.00 34 1016.0
20260510180550 22 297 1.6 11.3 0.00 0.00 0.00 34 1015.9
20260510180050 23 2 3.2 11.3 0.00 0.00 0.00 35 1016.0
20260510175549 22 342 4.8 14.5 0.00 0.00 0.00 35 1016.1
20260510175048 22 318 8.0 20.9 0.00 0.00 0.00 34 1015.9
20260510174551 22 312 1.6 20.9 0.00 0.00 0.00 35 1016.0
20260510174046 22 131 6.4 16.1 0.00 0.00 0.00 31 1016.2
20260510173548 23 297 4.8 11.3 0.00 0.00 0.00 33 1016.1
20260510173047 23 265 1.6 4.8 0.00 0.00 0.00 32 1016.1
20260510172546 22 117 1.6 12.9 0.00 0.00 0.00 31 1016.3
20260510172046 22 188 3.2 16.1 0.00 0.00 0.00 32 1016.3
20260510171548 22 327 8.0 16.1 0.00 0.00 0.00 30 1016.3
20260510171044 22 97 3.2 12.9 0.00 0.00 0.00 30 1016.3
20260510170545 22 117 6.4 14.5 0.00 0.00 0.00 28 1016.4
20260510170054 22 311 6.4 14.5 0.00 0.00 0.00 32 1016.5
20260510165545 22 358 3.2 14.5 0.00 0.00 0.00 31 1016.5
20260510165048 22 98 0.0 12.9 0.00 0.00 0.00 31 1016.4
20260510164545 22 349 6.4 14.5 0.00 0.00 0.00 30 1016.5
20260510164043 22 338 4.8 14.5 0.00 0.00 0.00 29 1016.5
20260510163543 22 214 0.0 19.3 0.00 0.00 0.00 31 1016.5
20260510163043 21 226 3.2 19.3 0.00 0.00 0.00 33 1016.5
20260510162541 22 201 8.0 19.3 0.00 0.00 0.00 29 1016.6
20260510162043 22 264 1.6 11.3 0.00 0.00 0.00 30 1016.7
20260510161541 22 6 3.2 11.3 0.00 0.00 0.00 30 1016.7
20260510161041 22 334 3.2 12.9 0.00 0.00 0.00 30 1016.7
20260510160540 22 253 4.8 12.9 0.00 0.00 0.00 33 1016.7
20260510160041 21 235 1.6 16.1 0.00 0.00 0.00 33 1016.7
20260510155538 21 218 8.0 16.1 0.00 0.00 0.00 35 1016.6
20260510155040 21 213 0.0 12.9 0.00 0.00 0.00 35 1016.6
20260510154537 21 250 4.8 11.3 0.00 0.00 0.00 35 1016.7
20260510154037 21 79 3.2 8.0 0.00 0.00 0.00 36 1016.7
20260510153535 21 94 0.0 11.3 0.00 0.00 0.00 36 1016.7
20260510153038 21 293 3.2 12.9 0.00 0.00 0.00 35 1016.8
20260510152534 21 72 1.6 12.9 0.00 0.00 0.00 37 1016.7
20260510152035 20 11 0.0 9.7 0.00 0.00 0.00 39 1016.8
20260510151533 20 309 3.2 12.9 0.00 0.00 0.00 39 1016.8
20260510151031 20 347 0.0 12.9 0.00 0.00 0.00 42 1016.6
20260510150530 19 223 0.0 12.9 0.00 0.00 0.00 43 1016.7
20260510150040 19 330 8.0 12.9 0.00 0.00 0.00 41 1016.9
20260510145531 19 345 1.6 17.7 0.00 0.00 0.00 41 1016.8
20260510145028 18 315 6.4 17.7 0.00 0.00 0.00 43 1016.9
20260510144533 18 337 3.2 17.7 0.00 0.00 0.00 43 1017.0
20260510144027 18 225 3.2 20.9 0.00 0.00 0.00 44 1016.9
20260510143526 18 325 3.2 20.9 0.00 0.00 0.00 44 1016.9
20260510143025 18 342 3.2 16.1 0.00 0.00 0.00 43 1016.8
20260510142525 18 25 6.4 17.7 0.00 0.00 0.00 43 1016.8
20260510142026 18 40 8.0 17.7 0.00 0.00 0.00 42 1016.8
20260510141531 18 289 3.2 14.5 0.00 0.00 0.00 42 1016.8
20260510141024 18 339 3.2 9.7 0.00 0.00 0.00 44 1016.7
20260510140523 18 341 3.2 12.9 0.00 0.00 0.00 45 1016.7
20260510140022 18 358 1.6 12.9 0.00 0.00 0.00 46 1016.7
20260510135524 18 8 1.6 8.0 0.00 0.00 0.00 49 1016.5
20260510135021 18 36 1.6 8.0 0.00 0.00 0.00 49 1016.6
20260510134521 18 283 0.0 4.8 0.00 0.00 0.00 50 1016.8
20260510134021 17 328 1.6 8.0 0.00 0.00 0.00 49 1016.9
20260510133519 18 8 3.2 8.0 0.00 0.00 0.00 48 1016.9
20260510133018 18 307 0.0 3.2 0.00 0.00 0.00 50 1016.8
20260510132517 17 13 0.0 3.2 0.00 0.00 0.00 51 1016.7
20260510132016 17 179 0.0 4.8 0.00 0.00 0.00 53 1016.6
20260510131515 17 289 1.6 4.8 0.00 0.00 0.00 54 1016.6
20260510131015 17 316 0.0 4.8 0.00 0.00 0.00 54 1016.8
20260510130513 17 307 0.0 4.8 0.00 0.00 0.00 57 1016.6
20260510130012 16 45 0.0 1.6 0.00 0.00 0.00 60 1016.7
20260510125513 15 46 0.0 1.6 0.00 0.00 0.00 63 1016.6
20260510125008 14 46 0.0 0.0 0.00 0.00 0.00 68 1016.6
20260510124508 14 46 0.0 1.6 0.00 0.00 0.00 68 1016.6
20260510124006 13 46 0.0 1.6 0.00 0.00 0.00 69 1016.5
20260510123505 13 98 0.0 1.6 0.00 0.00 0.00 75 1016.5
20260510123006 13 98 0.0 1.6 0.00 0.00 0.00 74 1016.5
20260510122501 12 98 0.0 1.6 0.00 0.00 0.00 74 1016.5
20260510122100 12 98 0.0 0.0 0.00 0.00 0.00 76 1016.6
20260510121559 11 98 0.0 0.0 0.00 0.00 0.00 82 1016.5
20260510121058 10 98 0.0 0.0 0.00 0.00 0.00 86 1016.5
20260510120557 10 98 0.0 0.0 0.00 0.00 0.00 86 1016.4
20260510120054 9 98 0.0 0.0 0.00 0.00 0.00 87 1016.3
20260510115554 9 98 0.0 3.2 0.00 0.00 0.00 90 1016.2
20260510115054 8 98 0.0 3.2 0.00 0.00 0.00 91 1016.1
20260510114655 7 127 0.0 1.6 0.00 0.00 0.00 93 1016.2
20260510114053 7 331 0.0 1.6 0.00 0.00 0.00 92 1016.3
20260510113551 7 332 0.0 1.6 0.00 0.00 0.00 91 1016.0
20260510113051 7 332 0.0 1.6 0.00 0.00 0.00 91 1015.7
20260510112549 7 332 0.0 1.6 0.00 0.00 0.00 92 1015.5
20260510112049 6 332 0.0 1.6 0.00 0.00 0.00 92 1015.5
20260510111547 6 332 0.0 1.6 0.00 0.00 0.00 92 1015.5
20260510111046 6 332 0.0 1.6 0.00 0.00 0.00 90 1015.3
20260510110545 6 332 0.0 1.6 0.00 0.00 0.00 89 1015.2
20260510110043 7 332 0.0 1.6 0.00 0.00 0.00 88 1015.0
20260510105543 7 332 0.0 0.0 0.00 0.00 0.00 87 1014.9
20260510105042 7 332 0.0 1.6 0.00 0.00 0.00 86 1015.0
20260510104542 8 332 0.0 1.6 0.00 0.00 0.00 85 1014.8
20260510104040 8 332 0.0 1.6 0.00 0.00 0.00 85 1014.8
20260510103543 8 328 0.0 1.6 0.00 0.00 0.00 85 1014.8
20260510103046 8 328 0.0 3.2 0.00 0.00 0.00 86 1014.8
20260510102540 8 328 0.0 3.2 0.00 0.00 0.00 86 1014.7
20260510102039 8 314 0.0 4.8 0.00 0.00 0.00 87 1014.7
20260510101539 8 331 0.0 3.2 0.00 0.00 0.00 89 1014.6
20260510101037 8 338 1.6 3.2 0.00 0.00 0.00 90 1014.6
20260510100537 8 354 0.0 3.2 0.00 0.00 0.00 91 1014.4
20260510100039 8 354 1.6 4.8 0.00 0.00 0.00 93 1014.3
20260510095538 7 340 1.6 4.8 0.00 0.00 0.00 94 1014.3
20260510095036 7 334 0.0 4.8 0.00 0.00 0.00 94 1014.2
20260510094541 7 351 1.6 3.2 0.00 0.00 0.00 94 1014.1
20260510094034 7 351 1.6 3.2 0.00 0.00 0.00 94 1014.2
20260510093534 7 351 0.0 3.2 0.00 0.00 0.00 94 1014.1
20260510093033 7 351 0.0 3.2 0.00 0.00 0.00 92 1014.1
20260510092533 7 351 0.0 3.2 0.00 0.00 0.00 92 1014.0
20260510092031 8 351 0.0 3.2 0.00 0.00 0.00 92 1014.0
20260510091532 8 351 0.0 3.2 0.00 0.00 0.00 93 1014.0
20260510091033 8 15 1.6 3.2 0.00 0.00 0.00 94 1013.9
20260510090531 8 15 0.0 1.6 0.00 0.00 0.00 94 1013.8
20260510090032 8 15 0.0 3.2 0.00 0.00 0.00 95 1013.8
20260510085530 8 15 0.0 3.2 0.00 0.00 0.00 95 1013.7
20260510085029 8 15 0.0 1.6 0.00 0.00 0.00 95 1013.7
20260510084529 7 15 0.0 1.6 0.00 0.00 0.00 95 1013.7
20260510084031 7 15 0.0 1.6 0.00 0.00 0.00 94 1013.7
20260510083529 7 15 0.0 1.6 0.00 0.00 0.00 94 1013.6
20260510083028 7 329 0.0 1.6 0.00 0.00 0.00 94 1013.6
20260510082527 7 360 0.0 1.6 0.00 0.00 0.00 94 1013.5
20260510082031 7 96 0.0 1.6 0.00 0.00 0.00 94 1013.5
20260510081536 7 96 0.0 1.6 0.00 0.00 0.00 94 1013.4
20260510081027 7 96 0.0 1.6 0.00 0.00 0.00 93 1013.4
20260510080527 7 96 0.0 3.2 0.00 0.00 0.00 92 1013.4
20260510080030 8 96 0.0 3.2 0.00 0.00 0.00 91 1013.4
20260510075526 8 112 0.0 4.8 0.00 0.00 0.00 91 1013.2
20260510075024 8 345 0.0 9.7 0.00 0.00 0.00 91 1013.2
20260510074524 8 340 3.2 9.7 0.00 0.00 0.00 93 1013.1
20260510074023 8 11 3.2 8.0 0.00 0.00 0.00 93 1013.0
20260510073523 8 329 4.8 8.0 0.00 0.00 0.00 94 1013.0
20260510073023 8 339 3.2 6.4 0.00 0.00 0.00 95 1013.0
20260510072522 7 343 3.2 4.8 0.00 0.00 0.00 93 1013.0
20260510072021 8 329 0.0 3.2 0.00 0.00 0.00 93 1013.1
20260510071520 8 112 0.0 1.6 0.00 0.00 0.00 93 1013.1
20260510071019 8 112 0.0 1.6 0.00 0.00 0.00 93 1013.2
20260510070519 8 111 0.0 1.6 0.00 0.00 0.00 93 1013.0
20260510070021 8 112 0.0 1.6 0.00 0.00 0.00 93 1013.1
20260510065518 8 111 0.0 0.0 0.00 0.00 0.00 92 1013.2
20260510065018 8 111 0.0 0.0 0.00 0.00 0.00 92 1013.1
20260510064520 8 112 0.0 1.6 0.00 0.00 0.00 93 1013.1
20260510064018 8 112 0.0 1.6 0.00 0.00 0.00 93 1013.1
20260510063517 8 113 0.0 3.2 0.00 0.00 0.00 93 1013.1
20260510063020 8 83 1.6 3.2 0.00 0.00 0.00 92 1013.2
20260510062516 8 127 1.6 3.2 0.00 0.00 0.00 91 1013.2
20260510062021 8 354 0.0 1.6 0.00 0.00 0.00 90 1013.2
20260510061523 8 354 0.0 3.2 0.00 0.00 0.00 91 1013.2
20260510061017 8 354 1.6 3.2 0.00 0.00 0.00 91 1013.2
20260510060520 9 355 0.0 1.6 0.00 0.00 0.00 88 1013.4
20260510060015 9 355 0.0 3.2 0.00 0.00 0.00 88 1013.4
20260510055515 10 355 0.0 3.2 0.00 0.00 0.00 89 1013.4
20260510055012 10 355 1.6 3.2 0.00 0.00 0.00 91 1013.5
20260510054512 9 1 1.6 3.2 0.00 0.00 0.00 91 1013.5
20260510054012 8 356 1.6 3.2 0.00 0.00 0.00 92 1013.4
20260510053510 8 352 0.0 3.2 0.00 0.00 0.00 92 1013.4
20260510053010 8 352 0.0 0.0 0.00 0.00 0.00 91 1013.3
20260510052509 8 352 0.0 1.6 0.00 0.00 0.00 91 1013.4
20260510052008 8 352 0.0 1.6 0.00 0.00 0.00 90 1013.3
20260510051516 8 352 0.0 1.6 0.00 0.00 0.00 90 1013.3
20260510051007 8 352 0.0 1.6 0.00 0.00 0.00 90 1013.3
20260510050607 8 352 0.0 4.8 0.00 0.00 0.00 90 1013.3
20260510050005 8 343 1.6 4.8 0.00 0.00 0.00 90 1013.4
20260510045508 8 212 0.0 1.6 0.00 0.00 0.00 90 1013.3
20260510045005 8 212 0.0 1.6 0.00 0.00 0.00 90 1013.2
20260510044509 8 212 0.0 0.0 0.00 0.00 0.00 90 1013.2
20260510044005 8 212 0.0 0.0 0.00 0.00 0.00 90 1013.3
20260510043503 8 212 0.0 1.6 0.00 0.00 0.00 89 1013.2
20260510043006 9 212 0.0 1.6 0.00 0.00 0.00 89 1013.2
20260510042501 9 212 0.0 1.6 0.00 0.00 0.00 89 1013.2
20260510042002 9 212 0.0 1.6 0.00 0.00 0.00 88 1013.3
20260510041637 9 212 0.0 1.6 0.00 0.00 0.00 88 1013.2
20260510041102 9 212 0.0 1.6 0.00 0.00 0.00 87 1013.1
20260510040558 9 116 0.0 1.6 0.00 0.00 0.00 87 1013.1
20260510040058 10 116 0.0 1.6 0.00 0.00 0.00 86 1013.1
20260510035557 10 116 0.0 1.6 0.00 0.00 0.00 86 1013.2
20260510035058 10 116 0.0 1.6 0.00 0.00 0.00 85 1013.1
20260510034559 10 116 0.0 1.6 0.00 0.00 0.00 85 1013.2
20260510034059 10 116 0.0 1.6 0.00 0.00 0.00 84 1013.2
20260510033556 10 116 0.0 1.6 0.00 0.00 0.00 83 1013.3
20260510033116 10 116 0.0 1.6 0.00 0.00 0.00 83 1013.2
20260510032556 10 116 0.0 3.2 0.00 0.00 0.00 84 1013.2
20260510032056 10 96 0.0 1.6 0.00 0.00 0.00 83 1013.1
20260510031557 10 96 0.0 3.2 0.00 0.00 0.00 83 1013.2
20260510031055 10 96 1.6 3.2 0.00 0.00 0.00 83 1013.2
20260510030558 11 158 0.0 1.6 0.00 0.00 0.00 81 1013.2
20260510030056 11 96 0.0 3.2 0.00 0.00 0.00 82 1013.1
20260510025556 10 96 0.0 1.6 0.00 0.00 0.00 83 1013.2
20260510025057 11 110 0.0 3.2 0.00 0.00 0.00 82 1013.2
20260510024609 11 117 0.0 3.2 0.00 0.00 0.00 82 1013.2
20260510024054 11 127 0.0 1.6 0.00 0.00 0.00 82 1013.0
20260510023554 11 127 0.0 0.0 0.00 0.00 0.00 81 1013.0
20260510023059 11 127 0.0 1.6 0.00 0.00 0.00 80 1013.0
20260510022554 11 127 0.0 1.6 0.00 0.00 0.00 79 1013.0
20260510022053 11 127 0.0 1.6 0.00 0.00 0.00 79 1012.9
20260510021554 11 127 0.0 1.6 0.00 0.00 0.00 79 1012.8
20260510021053 12 120 0.0 1.6 0.00 0.00 0.00 77 1012.8
20260510020554 12 120 0.0 1.6 0.00 0.00 0.00 76 1012.7
20260510020054 12 120 0.0 1.6 0.00 0.00 0.00 75 1012.6
20260510015555 12 120 0.0 1.6 0.00 0.00 0.00 74 1012.6
20260510015055 13 107 0.0 1.6 0.00 0.00 0.00 73 1012.5
20260510014612 13 107 0.0 0.0 0.00 0.00 0.00 71 1012.3
20260510014052 13 107 0.0 1.6 0.00 0.00 0.00 71 1012.3
20260510013552 13 107 0.0 3.2 0.00 0.00 0.00 70 1012.2
20260510013102 13 107 0.0 3.2 0.00 0.00 0.00 70 1012.2
20260510012555 13 115 0.0 3.2 0.00 0.00 0.00 70 1012.0
20260510012051 13 120 1.6 3.2 0.00 0.00 0.00 70 1011.9
20260510011551 13 113 0.0 1.6 0.00 0.00 0.00 70 1012.0
20260510011050 13 113 0.0 3.2 0.00 0.00 0.00 70 1012.0
20260510010550 14 113 0.0 3.2 0.00 0.00 0.00 69 1011.9
20260510010051 14 98 0.0 4.8 0.00 0.00 0.00 69 1011.7
20260510005551 14 110 1.6 4.8 0.00 0.00 0.00 69 1011.5
20260510005049 14 135 1.6 4.8 0.00 0.00 0.00 68 1011.5
20260510004553 15 129 0.0 1.6 0.00 0.00 0.00 67 1011.4
20260510004049 15 311 0.0 1.6 0.00 0.00 0.00 65 1011.2
20260510003549 15 311 0.0 1.6 0.00 0.00 0.00 64 1011.1
20260510003049 15 338 0.0 3.2 0.00 0.00 0.00 62 1011.0
20260510002548 16 338 0.0 3.2 0.00 0.00 0.00 62 1010.9
20260510002049 16 292 1.6 3.2 0.00 0.00 0.00 61 1010.8
20260510001549 16 300 1.6 3.2 0.00 0.00 0.00 60 1010.8
20260510001050 16 342 0.0 4.8 0.00 0.00 0.00 60 1010.8
20260510000551 16 342 0.0 6.4 0.00 0.00 0.00 60 1010.7
20260510000049 16 1 0.0 8.0 0.00 0.00 0.00 60 1010.8
20260509235549 16 334 3.2 8.0 0.00 0.00 0.00 59 1010.7
20260509235050 16 337 1.6 9.7 0.00 0.00 0.00 59 1010.8
20260509234547 17 332 3.2 14.5 0.00 0.00 0.00 58 1010.9
20260509234048 17 4 4.8 14.5 0.00 0.00 0.00 57 1010.8
20260509233548 17 334 4.8 16.1 0.00 0.00 0.00 56 1010.8
20260509233051 17 318 4.8 16.1 0.00 0.00 0.00 56 1010.6
20260509232547 17 356 3.2 11.3 0.00 0.00 0.00 56 1010.5
20260509232048 17 298 3.2 11.3 0.00 0.00 0.00 55 1010.6
20260509231557 17 346 4.8 9.7 0.00 0.00 0.00 55 1010.6
20260509231046 18 352 3.2 14.5 0.00 0.00 0.00 54 1010.7
20260509230550 18 336 4.8 14.5 0.00 0.00 0.00 54 1010.5
20260509230046 18 229 3.2 12.9 0.00 0.00 0.00 53 1010.5
20260509225545 18 339 4.8 12.9 0.00 0.00 0.00 52 1010.4
20260509225045 18 322 1.6 11.3 0.00 0.00 0.00 52 1010.4
20260509224545 18 315 6.4 11.3 0.00 0.00 0.00 50 1010.5
20260509224045 18 300 1.6 17.7 0.00 0.00 0.00 50 1010.4
20260509223545 18 342 4.8 17.7 0.00 0.00 0.00 49 1010.4
20260509223050 18 21 8.0 17.7 0.00 0.00 0.00 48 1010.2
20260509222549 19 329 9.7 17.7 0.00 0.00 0.00 47 1010.0
20260509222044 19 274 1.6 17.7 0.00 0.00 0.00 47 1010.1
20260509221546 19 261 3.2 16.1 0.00 0.00 0.00 46 1010.1
20260509221043 19 230 3.2 16.1 0.00 0.00 0.00 46 1010.1
20260509220543 19 132 8.0 17.7 0.00 0.00 0.00 46 1010.1
20260509220045 19 311 8.0 20.9 0.00 0.00 0.00 48 1010.0
20260509215547 19 82 8.0 27.4 0.00 0.00 0.00 49 1009.9
20260509215041 19 13 9.7 27.4 0.00 0.00 0.00 48 1009.8
20260509214542 20 41 6.4 16.1 0.00 0.00 0.00 47 1010.1
20260509214043 20 350 8.0 19.3 0.00 0.00 0.00 47 1010.0
20260509213541 20 280 8.0 19.3 0.00 0.00 0.00 48 1010.1
20260509213045 20 215 6.4 17.7 0.00 0.00 0.00 47 1010.1
20260509212540 20 284 6.4 17.7 0.00 0.00 0.00 46 1010.0
20260509212040 20 170 4.8 17.7 0.00 0.00 0.00 47 1009.8